Omaha Millard, NE

2:59 AM CDT on June 25, 2017 (GMT -0500)
Millard Municipal

Weather History for KMLE - January, 2014

Change the Weather History Date:

Sunday, January 12, 2014

  Actual Average (KOFF) Record (KOFF)
Temperature  
Mean Temperature 42 °F -  
Max Temperature 52 °F 30 °F 53 °F (2006)
Min Temperature 31 °F 14 °F -9 °F (2011)
Degree Days  
Heating Degree Days 24    
Moisture  
Dew Point 28 °F    
Average Humidity 59    
Maximum Humidity 78    
Minimum Humidity 38    
Precipitation  
Precipitation 0.00 in - - ()
Sea Level Pressure  
Sea Level Pressure 29.57 in    
Wind  
Wind Speed 3 mph (SSW)    
Max Wind Speed 9 mph    
Max Gust Speed -    
Visibility 10 miles    
Events Rain    
Averages and records for this station are not official NWS values.
T = Trace of Precipitation, MM = Missing Value Source: NWS Daily Summary

Daily Weather History Graph

Daily Weather History Graph

Search for Another Location

Airport or City:

Trip Planner

Search our weather history database for the weather conditions in past years. The results will help you decide how hot, cold, wet, or windy it might be!

Date:

Astronomy

Jan. 12, 2014 Rise Set
Actual Time 7:48 AM CST 5:17 PM CST
Civil Twilight 7:18 AM CST 5:47 PM CST
Nautical Twilight 6:44 AM CST 6:21 PM CST
Astronomical Twilight 6:10 AM CST 6:55 PM CST
Moon 2:46 PM CST (1/12) 4:48 AM CST (1/12)
Length of Visible Light 10h 29m
Length of Day
9h 28m
Waxing Gibbous, 90% of the Moon is Illuminated
Jan 12
Waxing Gibbous
Jan 15
Full
Jan 23
Last Quarter
Jan 30
New
Feb 6
First Quarter

Hourly Weather History & Observations

Time (CST) Temp. Windchill Dew Point Humidity Pressure Visibility Wind Dir Wind Speed Gust Speed Precip Events Conditions
12:15 AM 31.6 °F 28.3 °F 24.8 °F 76% 29.71 in 10.0 mi ESE 3.5 mph - N/A   Clear
12:35 AM 33.8 °F 29.6 °F 26.4 °F 74% 29.69 in 10.0 mi SE 4.6 mph - N/A   Clear
12:55 AM 35.6 °F 32.8 °F 26.8 °F 70% 29.68 in 10.0 mi SSE 3.5 mph - N/A   Clear
1:15 AM 35.2 °F 31.2 °F 26.6 °F 71% 29.67 in 10.0 mi SSE 4.6 mph - N/A   Clear
1:35 AM 35.2 °F 30.3 °F 26.8 °F 71% 29.65 in 10.0 mi SE 5.8 mph - N/A   Clear
1:55 AM 33.8 °F 29.6 °F 26.4 °F 74% 29.64 in 10.0 mi SE 4.6 mph - N/A   Clear
2:15 AM 33.4 °F 30.4 °F 26.6 °F 76% 29.63 in 10.0 mi SE 3.5 mph - N/A   Clear
2:35 AM 34.0 °F - 26.6 °F 74% 29.62 in 10.0 mi Calm Calm - N/A   Clear
2:55 AM 34.7 °F 31.8 °F 26.6 °F 72% 29.61 in 10.0 mi ESE 3.5 mph - N/A   Clear
3:15 AM 32.9 °F 29.8 °F 26.1 °F 76% 29.61 in 10.0 mi SE 3.5 mph - N/A   Clear
3:35 AM 33.6 °F 30.6 °F 26.2 °F 74% 29.59 in 10.0 mi SE 3.5 mph - N/A   Clear
3:55 AM 33.8 °F - 26.2 °F 74% 29.58 in 10.0 mi Calm Calm - N/A   Clear
4:15 AM 33.4 °F - 26.1 °F 74% 29.58 in 10.0 mi Calm Calm - N/A   Clear
4:35 AM 32.4 °F - 25.5 °F 76% 29.57 in 10.0 mi Calm Calm - N/A   Clear
4:55 AM 32.4 °F 29.1 °F 25.5 °F 76% 29.57 in 10.0 mi SE 3.5 mph - N/A   Clear
5:15 AM 32.0 °F 26.4 °F 25.3 °F 76% 29.56 in 10.0 mi SE 5.8 mph - N/A   Clear
5:35 AM 31.1 °F 23.1 °F 25.0 °F 78% 29.55 in 10.0 mi SE 9.2 mph - N/A   Clear
5:55 AM 33.6 °F - 25.7 °F 73% 29.54 in 10.0 mi Calm Calm - N/A   Clear
6:15 AM 34.3 °F 30.2 °F 25.7 °F 71% 29.54 in 10.0 mi South 4.6 mph - N/A   Clear
6:35 AM 37.2 °F 33.6 °F 25.7 °F 63% 29.52 in 10.0 mi South 4.6 mph - N/A   Clear
6:55 AM 39.4 °F 36.1 °F 25.7 °F 58% 29.51 in 10.0 mi South 4.6 mph - N/A   Clear
7:15 AM 40.6 °F 36.7 °F 25.5 °F 55% 29.51 in 10.0 mi South 5.8 mph - N/A   Clear
7:35 AM 41.0 °F 39.0 °F 25.2 °F 53% 29.51 in 10.0 mi South 3.5 mph - N/A   Clear
7:55 AM 41.0 °F 39.0 °F 25.2 °F 53% 29.51 in 10.0 mi South 3.5 mph - N/A   Clear
8:15 AM 40.1 °F 36.9 °F 25.2 °F 55% 29.52 in 10.0 mi South 4.6 mph - N/A   Clear
8:35 AM 40.5 °F 37.3 °F 25.3 °F 55% 29.52 in 10.0 mi South 4.6 mph - N/A   Clear
8:55 AM 40.3 °F 38.2 °F 25.3 °F 55% 29.51 in 10.0 mi South 3.5 mph - N/A   Clear
9:15 AM 40.6 °F - 25.5 °F 55% 29.51 in 10.0 mi Calm Calm - N/A   Clear
9:35 AM 41.4 °F 39.4 °F 25.7 °F 54% 29.51 in 10.0 mi South 3.5 mph - N/A   Clear
9:55 AM 42.1 °F - 25.9 °F 53% 29.51 in 10.0 mi Calm Calm - N/A   Clear
10:15 AM 43.0 °F - 26.1 °F 51% 29.51 in 10.0 mi Calm Calm - N/A   Clear
10:35 AM 44.1 °F - 26.4 °F 50% 29.52 in 10.0 mi Calm Calm - N/A   Clear
10:55 AM 45.0 °F 43.5 °F 26.2 °F 48% 29.52 in 10.0 mi SW 3.5 mph - N/A   Clear
11:15 AM 46.4 °F 45.2 °F 25.9 °F 45% 29.51 in 10.0 mi SW 3.5 mph - N/A   Clear
11:35 AM 47.3 °F - 25.7 °F 43% 29.49 in 10.0 mi WSW 5.8 mph - N/A   Clear
11:55 AM 48.2 °F - 26.1 °F 42% 29.49 in 10.0 mi WSW 4.6 mph - N/A   Clear
12:15 PM 48.4 °F - 26.1 °F 42% 29.47 in 10.0 mi Calm Calm - N/A   Clear
12:35 PM 50.2 °F - 26.4 °F 40% 29.46 in 10.0 mi SW 4.6 mph - N/A   Clear
12:55 PM 51.6 °F - 26.6 °F 38% 29.45 in 10.0 mi West 3.5 mph - N/A   Clear
1:15 PM 52.0 °F - 27.1 °F 38% 29.44 in 10.0 mi West 6.9 mph - N/A   Clear
1:35 PM 51.6 °F - 27.7 °F 40% 29.44 in 10.0 mi WNW 4.6 mph - N/A   Clear
1:55 PM 51.4 °F - 27.7 °F 40% 29.44 in 10.0 mi Calm Calm - N/A   Clear
2:15 PM 51.8 °F - 28.0 °F 40% 29.45 in 10.0 mi Calm Calm - N/A   Clear
2:35 PM 51.8 °F - 27.9 °F 40% 29.46 in 10.0 mi Calm Calm - N/A   Clear
2:55 PM 51.8 °F - 28.4 °F 41% 29.48 in 10.0 mi Calm Calm - N/A   Clear
3:15 PM 51.3 °F - 30.0 °F 44% 29.50 in 10.0 mi NW 9.2 mph - N/A   Clear
3:35 PM 50.0 °F - 30.7 °F 48% 29.52 in 10.0 mi NW 9.2 mph - N/A   Clear
3:55 PM 49.5 °F - 30.9 °F 49% 29.53 in 10.0 mi NW 8.1 mph - N/A   Clear
4:15 PM 48.7 °F - 30.6 °F 50% 29.54 in 10.0 mi NW 4.6 mph - N/A   Clear
4:35 PM 48.2 °F - 30.7 °F 51% 29.54 in 10.0 mi Calm Calm - N/A   Clear
4:55 PM 47.3 °F - 30.6 °F 52% 29.55 in 10.0 mi NW 3.5 mph - N/A   Clear
5:15 PM 46.9 °F - 30.6 °F 53% 29.57 in 10.0 mi Calm Calm - N/A   Scattered Clouds
5:35 PM 46.4 °F - 30.6 °F 54% 29.57 in 10.0 mi Calm Calm - N/A   Scattered Clouds
5:55 PM 44.6 °F - 30.6 °F 58% 29.59 in 10.0 mi Calm Calm - N/A   Mostly Cloudy
6:15 PM 45.9 °F 44.6 °F 31.8 °F 58% 29.59 in 10.0 mi NW 3.5 mph - N/A   Mostly Cloudy
6:35 PM 43.9 °F 41.3 °F 31.1 °F 61% 29.60 in 10.0 mi WNW 4.6 mph - N/A   Clear
6:55 PM 43.3 °F 41.7 °F 31.1 °F 62% 29.61 in 10.0 mi WNW 3.5 mph - N/A   Clear
7:15 PM 44.2 °F - 30.9 °F 60% 29.61 in 10.0 mi Calm Calm - N/A   Scattered Clouds
7:35 PM 42.1 °F - 30.7 °F 64% 29.62 in 10.0 mi Calm Calm - N/A   Mostly Cloudy
7:55 PM 41.9 °F 39.0 °F 30.4 °F 64% 29.63 in 10.0 mi NW 4.6 mph - N/A   Scattered Clouds
8:15 PM 42.1 °F - 30.2 °F 63% 29.63 in 10.0 mi Calm Calm - N/A   Scattered Clouds
8:35 PM 42.4 °F - 30.6 °F 63% 29.63 in 10.0 mi Calm Calm - N/A   Mostly Cloudy
8:55 PM 42.4 °F 39.6 °F 30.9 °F 64% 29.64 in 10.0 mi NW 4.6 mph - N/A   Overcast
9:15 PM 43.5 °F 38.3 °F 31.5 °F 63% 29.65 in 10.0 mi NW 9.2 mph - N/A   Drizzle
9:35 PM 45.7 °F - 34.7 °F 65% 29.65 in 10.0 mi Calm Calm - N/A Rain Light Rain
9:55 PM 45.1 °F - 33.8 °F 65% 29.65 in 10.0 mi Calm Calm - N/A   Overcast
10:15 PM 41.4 °F - 34.7 °F 77% 29.66 in 10.0 mi Calm Calm - N/A   Overcast
10:35 PM 41.9 °F - 34.5 °F 75% 29.66 in 10.0 mi Calm Calm - N/A   Overcast
10:55 PM 43.7 °F 40.3 °F 32.4 °F 64% 29.66 in 10.0 mi WNW 5.8 mph - N/A   Overcast
11:15 PM 46.2 °F - 30.6 °F 54% 29.67 in 10.0 mi Calm Calm - N/A   Overcast
11:35 PM 45.5 °F - 30.6 °F 56% 29.67 in 10.0 mi Calm Calm - N/A   Overcast
11:55 PM 45.1 °F - 30.4 °F 56% 29.66 in 10.0 mi Calm Calm - N/A   Overcast